Chillicothe, MO

10:59 PM CDT on April 20, 2018 (GMT -0500)
Chillicothe

Weather History for KCDJ - July, 2014

Change the Weather History Date:

Tuesday, July 1, 2014

  Actual Average (KIRK) Record (KIRK)
Temperature  
Mean Temperature 74 °F -  
Max Temperature 84 °F 85 °F 101 °F (1931)
Min Temperature 66 °F 63 °F 48 °F (1924)
Cooling Degree Days 9    
Growing Degree Days 24 (Base 50)    
Moisture  
Dew Point 61 °F    
Average Humidity 64    
Maximum Humidity 93    
Minimum Humidity 44    
Precipitation  
Precipitation 0.00 in - - ()
Sea Level Pressure  
Sea Level Pressure 29.85 in    
Wind  
Wind Speed 4 mph (West)    
Max Wind Speed 12 mph    
Max Gust Speed 20 mph    
Averages and records for this station are not official NWS values.
T = Trace of Precipitation, MM = Missing Value Source: NWS Daily Summary

Daily Weather History Graph

Daily Weather History Graph

Search for Another Location

Airport or City:

Astronomy

Jul. 01, 2014 Rise Set
Actual Time 5:49 AM CDT 8:46 PM CDT
Civil Twilight 5:17 AM CDT 9:18 PM CDT
Nautical Twilight 4:36 AM CDT 10:00 PM CDT
Astronomical Twilight 3:48 AM CDT 10:47 PM CDT
Moon 9:57 AM CDT (7/1) 11:10 PM CDT (7/1)
Length of Visible Light 16h 01m
Length of Day
14h 56m
Waxing Crescent, 17% of the Moon is Illuminated
Jul 1
Waxing Crescent
Jul 5
First Quarter
Jul 12
Full
Jul 18
Last Quarter
Jul 26
New

Hourly Weather History & Observations

Time (CDT) Temp. Heat Index Dew Point Humidity Pressure Visibility Wind Dir Wind Speed Gust Speed Precip Events Conditions
12:52 AM 71.1 °F - 66.9 °F 87% 29.77 in - Calm Calm - N/A   Unknown
1:52 AM 68.0 °F - 66.0 °F 93% 29.79 in - Calm Calm - N/A   Unknown
2:52 AM 66.9 °F - 64.9 °F 93% 29.78 in - Calm Calm - N/A   Unknown
3:52 AM 66.0 °F - 64.0 °F 93% 29.81 in - South 3.5 mph - N/A   Unknown
4:52 AM 68.0 °F - 64.9 °F 90% 29.83 in - Variable 4.6 mph - N/A   Unknown
5:52 AM 68.0 °F - 64.9 °F 90% 29.83 in - WNW 8.1 mph - N/A   Unknown
6:52 AM 69.1 °F - 63.0 °F 81% 29.85 in - WNW 4.6 mph - N/A   Unknown
7:52 AM 70.0 °F - 62.1 °F 76% 29.85 in - NW 8.1 mph - N/A   Unknown
8:52 AM 73.0 °F - 62.1 °F 68% 29.84 in - Calm Calm - N/A   Unknown
9:52 AM 75.0 °F - 59.0 °F 57% 29.83 in - NW 9.2 mph - N/A   Unknown
10:52 AM 77.0 °F - 60.1 °F 56% 29.86 in - West 8.1 mph - N/A   Unknown
11:52 AM 79.0 °F - 61.0 °F 54% 29.87 in - Variable 5.8 mph - N/A   Unknown
12:52 PM 80.1 °F 80.7 °F 59.0 °F 48% 29.87 in - West 9.2 mph 16.1 mph N/A   Unknown
1:52 PM 81.0 °F 81.6 °F 60.1 °F 49% 29.87 in - WSW 8.1 mph - N/A   Unknown
2:52 PM 82.0 °F 82.1 °F 59.0 °F 45% 29.86 in - WSW 11.5 mph 19.6 mph N/A   Unknown
3:52 PM 82.0 °F 82.7 °F 61.0 °F 49% 29.86 in - West 5.8 mph - N/A   Unknown
4:52 PM 82.9 °F 83.2 °F 60.1 °F 46% 29.84 in - West 9.2 mph 18.4 mph N/A   Unknown
5:52 PM 82.9 °F 83.2 °F 60.1 °F 46% 29.83 in - West 6.9 mph - N/A   Unknown
6:52 PM 82.0 °F 82.0 °F 57.9 °F 44% 29.83 in - Variable 5.8 mph - N/A   Unknown
7:52 PM 78.1 °F - 57.9 °F 50% 29.84 in - Variable 6.9 mph - N/A   Unknown
8:52 PM 75.0 °F - 59.0 °F 57% 29.85 in - North - - N/A   Unknown
9:52 PM 73.9 °F - 54.0 °F 50% 29.90 in - NW 5.8 mph - N/A   Unknown
10:52 PM 72.0 °F - 52.0 °F 49% 29.94 in - NW 8.1 mph - N/A   Unknown
11:52 PM 68.0 °F - 53.1 °F 59% 29.97 in - Calm Calm - N/A   Unknown